星链-31887 (STARLINK-31887 )

导读 | 豆包AI

STARLINK-31887是美国太空探索技术公司(SpaceX)星链(Starlink)卫星互联网项目中的一颗低轨通信卫星,于北京时间2024年5月23日发射入轨,属于第二代星链(Gen2)卫星系列。该卫星运行在近地轨道,配备先进通信载荷,旨在为全球提供高速低延迟的宽带互联网服务,重点覆盖偏远和网络基础设施匮乏地区。作为星链巨型星座的一员,它有效扩充了星座规模,提升了星链网络的覆盖容量与服务稳定性,是SpaceX推进全球卫星互联网普及计划的重要组成部分。

Basic Information
目录编号:
59839
目录名称:
STARLINK-31887
国际标识:
2024-097E
轨道中心:
EARTH
卫星名称:
星链-31887
卫星全名:
星链-31887 (STARLINK-31887 )
卫星状态:
在轨 (已飞行661 天)
发射日期:
2024-05-23 UTC
国别 :
美国 (US)
星等 :
--
Orbit Information
数据来源 国际轨道数据 AOE轨道数据
星历时间 2026-03-15T12:31:21+0800
15小时前
查看轨道信息
2026-03-14T09:00:00+0800
1天前
查看轨道信息
半长轴 6861.211km 6861.16km
偏心率 0.0000948 0.0001298
轨道倾角 43.001° 43.004°
近地点辐角 173.401° 260.463°
升交点赤经 243.653° 250.134°
平近点角 186.686° 265.860°
近地点 482.423km 482.132km
远地点 483.725km 483.914km
周期 94.267分钟 94.266分钟
每日圈数 15.27572 15.27589
Detailed Information
固有亮度:
5
最大亮度:
1.5
卫星平台:
Starlink v2.0 mini
覆盖范围:
全球
运营商:
太空探索技术公司
运营商所在国:
美国
制造商(研发单位):
太空探索技术公司
制造商所在国:
美国
使用方式:
暂无
Satellite Introduction
星链(Starlink)计划是由太空探索技术公司(SpaceX)提出的一个巨型低轨卫星互联网星座项目,计划在2019年至2024年间在太空搭建由约1.2万颗卫星组成的“星链”网络,其中1584颗将部署在地球上空550千米处的近地轨道,并从2020年开始工作。该卫星仍在工作。
2D Orbit Map
3D Orbit Map
Orbit Altitude Analysis Chart
Orbit Inclination Analysis Chart
Orbit Comprehensive Analysis Chart
View Comprehensive Chart